DW6881 Weather Reports


Display with metric or nautical units.
time (UTC)temp
F
wind
direction
speed
MPH
gust
MPH
rain 1hr
in
rain 24hr
in
rain mn
in
humidity
%
barometer
mb
20260504044946 41 223 0.0 0.0 0.00 0.00 0.00 83 1010.0
20260504043921 41 223 0.0 1.0 0.00 0.00 0.00 82 1009.9
20260504042855 41 223 0.0 1.0 0.00 0.00 0.00 80 1009.9
20260504042350 41 223 0.0 1.0 0.00 0.00 0.00 80 1009.9
20260504041839 41 223 0.0 1.0 0.00 0.00 0.00 79 1009.9
20260504041319 41 223 0.0 2.0 0.00 0.00 0.00 79 1010.0
20260504040818 42 223 0.0 2.0 0.00 0.00 0.00 78 1010.0
20260504040307 42 223 0.0 2.0 0.00 0.00 0.00 77 1010.0
20260504035802 42 223 0.0 2.0 0.00 0.00 0.00 77 1009.9
20260504035258 42 223 0.0 0.0 0.00 0.00 0.00 77 1009.9
20260504034750 42 223 0.0 0.0 0.00 0.00 0.00 76 1010.0
20260504034244 42 223 0.0 0.0 0.00 0.00 0.00 76 1009.8
20260504033744 42 223 0.0 0.0 0.00 0.00 0.00 75 1009.8
20260504033237 43 223 0.0 1.0 0.00 0.00 0.00 75 1009.8
20260504032735 43 223 0.0 1.0 0.00 0.00 0.00 75 1009.9
20260504031733 43 223 0.0 0.0 0.00 0.00 0.00 74 1009.9
20260504031231 44 223 0.0 0.0 0.00 0.00 0.00 73 1010.0
20260504030707 44 223 0.0 0.0 0.00 0.00 0.00 72 1010.1
20260504025655 44 223 0.0 0.0 0.00 0.00 0.00 72 1010.3
20260504025148 45 223 0.0 0.0 0.00 0.00 0.00 71 1010.3
20260504024641 45 223 0.0 0.0 0.00 0.00 0.00 71 1010.3
20260504024130 45 223 0.0 0.0 0.00 0.00 0.00 71 1010.4
20260504023630 45 223 0.0 0.0 0.00 0.00 0.00 71 1010.4
20260504022110 46 223 0.0 0.0 0.00 0.00 0.00 69 1010.5
20260504021555 47 223 0.0 0.0 0.00 0.00 0.00 68 1010.5
20260504021045 47 223 0.0 0.0 0.00 0.00 0.00 68 1010.5
20260504020537 47 223 0.0 0.0 0.00 0.00 0.00 67 1010.5
20260504020026 48 223 0.0 0.0 0.00 0.00 0.00 66 1010.6
20260504015522 48 223 0.0 0.0 0.00 0.00 0.00 64 1010.6
20260504015017 49 223 0.0 0.0 0.00 0.00 0.00 63 1010.6
20260504014508 49 223 0.0 0.0 0.00 0.00 0.00 62 1010.7
20260504013953 50 223 0.0 0.0 0.00 0.00 0.00 61 1010.6
20260504013440 50 223 0.0 0.0 0.00 0.00 0.00 60 1010.6
20260504012933 51 223 0.0 0.0 0.00 0.00 0.00 57 1010.6
20260504011927 51 223 0.0 0.0 0.00 0.00 0.00 55 1010.6
20260504011430 52 223 0.0 2.0 0.00 0.00 0.00 53 1010.7
20260504010917 52 223 0.0 2.0 0.00 0.00 0.00 54 1010.8
20260504010356 53 223 0.0 0.0 0.00 0.00 0.00 52 1010.8
20260504005332 53 223 0.0 0.0 0.00 0.00 0.00 49 1010.8
20260504004830 54 223 0.0 0.0 0.00 0.00 0.00 48 1010.8
20260504004314 54 223 0.0 0.0 0.00 0.00 0.00 47 1010.6
20260504003811 55 223 0.0 0.0 0.00 0.00 0.00 45 1010.7
20260504003301 55 223 0.0 0.0 0.00 0.00 0.00 43 1010.7
20260504002802 55 223 0.0 0.0 0.00 0.00 0.00 42 1010.8
20260504002303 56 223 0.0 2.0 0.00 0.00 0.00 41 1010.8
20260504001744 56 223 0.0 2.0 0.00 0.00 0.00 40 1010.8
20260504001238 56 223 0.0 2.0 0.00 0.00 0.00 40 1010.9
20260504000731 56 223 0.0 2.0 0.00 0.00 0.00 39 1010.9
20260504000222 56 223 1.0 3.0 0.00 0.00 0.00 39 1010.9
20260503235211 56 223 3.0 6.0 0.00 0.00 0.00 38 1011.0
20260503234707 56 223 4.0 9.0 0.00 0.00 0.00 38 1011.0
20260503234201 57 223 3.0 9.0 0.00 0.00 0.00 38 1011.2
20260503233654 57 223 3.0 7.0 0.00 0.00 0.00 38 1011.2
20260503233141 57 223 4.0 11.0 0.00 0.00 0.00 37 1011.2
20260503232636 57 223 6.0 12.0 0.00 0.00 0.00 36 1011.3
20260503232129 57 233 6.0 12.0 0.00 0.00 0.00 36 1011.3
20260503231625 57 231 5.0 12.0 0.00 0.00 0.00 36 1011.3
20260503231117 57 271 5.0 11.0 0.00 0.00 0.00 36 1011.4
20260503230611 58 257 7.0 13.0 0.00 0.00 0.00 35 1011.4
20260503225556 58 224 6.0 13.0 0.00 0.00 0.00 36 1011.4
20260503224544 58 236 7.0 14.0 0.00 0.00 0.00 35 1011.4
20260503224037 58 229 7.0 14.0 0.00 0.00 0.00 35 1011.5
20260503223530 58 201 7.0 15.0 0.00 0.00 0.00 35 1011.5
20260503223024 58 272 8.0 15.0 0.00 0.00 0.00 36 1011.5
20260503222518 58 253 7.0 15.0 0.00 0.00 0.00 36 1011.7
20260503222012 58 231 6.0 13.0 0.00 0.00 0.00 34 1011.7
20260503221505 58 235 6.0 12.0 0.00 0.00 0.00 34 1011.5
20260503220956 59 267 5.0 11.0 0.00 0.00 0.00 35 1011.5
20260503220443 59 224 5.0 11.0 0.00 0.00 0.00 38 1011.5
20260503215937 59 220 6.0 12.0 0.00 0.00 0.00 35 1011.6
20260503215429 58 231 6.0 12.0 0.00 0.00 0.00 35 1011.6
20260503214929 58 233 6.0 11.0 0.00 0.00 0.00 35 1011.6
20260503213925 59 218 6.0 15.0 0.00 0.00 0.00 33 1011.5
20260503213427 60 217 6.0 14.0 0.00 0.00 0.00 34 1011.5
20260503212926 60 219 6.0 14.0 0.00 0.00 0.00 34 1011.4
20260503211921 59 222 6.0 15.0 0.00 0.00 0.00 33 1011.3
20260503210917 60 205 9.0 15.0 0.00 0.00 0.00 35 1011.5
20260503205859 59 219 6.0 13.0 0.00 0.00 0.00 37 1011.6
20260503205348 58 245 6.0 14.0 0.00 0.00 0.00 40 1011.6
20260503204835 58 217 8.0 17.0 0.00 0.00 0.00 36 1011.6
20260503204322 59 210 8.0 17.0 0.00 0.00 0.00 35 1011.9
20260503203811 59 203 6.0 15.0 0.00 0.00 0.00 35 1011.9
20260503203259 58 217 7.0 13.0 0.00 0.00 0.00 35 1011.9
20260503202748 59 253 6.0 12.0 0.00 0.00 0.00 34 1012.0
20260503201744 60 233 6.0 14.0 0.00 0.00 0.00 36 1012.0
20260503201245 60 222 6.0 14.0 0.00 0.00 0.00 35 1012.2
20260503200237 60 247 6.0 17.0 0.00 0.00 0.00 33 1012.2
20260503195735 59 276 6.0 14.0 0.00 0.00 0.00 40 1012.6
20260503195235 59 308 5.0 13.0 0.00 0.00 0.00 39 1012.6
20260503194735 58 239 5.0 13.0 0.00 0.00 0.00 39 1012.4
20260503194233 58 237 6.0 15.0 0.00 0.00 0.00 37 1012.6
20260503192735 59 267 8.0 20.0 0.00 0.00 0.00 37 1012.9
20260503192236 59 217 6.0 16.0 0.00 0.00 0.00 36 1012.9
20260503191733 59 268 6.0 13.0 0.00 0.00 0.00 39 1012.9
20260503191223 58 308 7.0 16.0 0.00 0.00 0.00 35 1013.1
20260503190717 58 292 7.0 19.0 0.00 0.00 0.00 37 1013.1
20260503190212 58 238 6.0 19.0 0.00 0.00 0.00 37 1013.1
20260503185706 58 225 6.0 15.0 0.00 0.00 0.00 45 1013.2
20260503185159 58 226 7.0 15.0 0.00 0.00 0.00 36 1013.2
20260503184653 58 219 8.0 21.0 0.00 0.00 0.00 40 1013.2
20260503184144 57 214 9.0 21.0 0.00 0.00 0.00 39 1013.3
20260503183633 57 242 8.0 15.0 0.00 0.00 0.00 39 1013.3
20260503183123 57 223 7.0 15.0 0.00 0.00 0.00 39 1013.3
20260503182613 57 257 7.0 20.0 0.00 0.00 0.00 38 1013.4
20260503182109 57 209 9.0 20.0 0.00 0.00 0.00 39 1013.4
20260503181557 57 198 7.0 15.0 0.00 0.00 0.00 39 1013.4
20260503181047 57 218 7.0 15.0 0.00 0.00 0.00 38 1013.7
20260503180537 57 287 8.0 15.0 0.00 0.00 0.00 40 1013.7
20260503180029 58 220 6.0 14.0 0.00 0.00 0.00 41 1013.7
20260503175523 57 229 4.0 14.0 0.00 0.00 0.00 40 1013.9
20260503175016 57 235 7.0 20.0 0.00 0.00 0.00 42 1013.9
20260503174514 56 242 9.0 20.0 0.00 0.00 0.00 40 1013.8
20260503174008 56 217 7.0 15.0 0.00 0.00 0.00 44 1014.0
20260503173501 56 217 7.0 15.0 0.00 0.00 0.00 41 1014.0
20260503172952 56 235 7.0 16.0 0.00 0.00 0.00 41 1014.1
20260503172443 56 255 8.0 16.0 0.00 0.00 0.00 40 1014.1
20260503171936 56 227 7.0 16.0 0.00 0.00 0.00 41 1014.1
20260503171433 56 314 6.0 16.0 0.00 0.00 0.00 46 1014.2
20260503170928 55 283 7.0 16.0 0.00 0.00 0.00 44 1014.2
20260503170421 55 230 8.0 14.0 0.00 0.00 0.00 41 1014.1
20260503160212 53 260 6.0 16.0 0.00 0.00 0.00 41 1014.6
20260503150648 50 270 8.0 18.0 0.00 0.00 0.00 44 1014.8
20260503131030 42 285 4.0 11.0 0.00 0.00 0.00 79 1014.9
20260503130528 42 286 4.0 9.0 0.00 0.00 0.00 82 1014.8
20260503110810 31 319 0.0 1.0 0.00 0.00 0.00 94 1013.5
20260503110303 30 319 0.0 0.0 0.00 0.00 0.00 94 1013.5
20260503090311 33 319 0.0 0.0 0.00 0.00 0.00 93 1012.8
20260503081611 33 319 0.0 0.0 0.00 0.00 0.00 92 1012.8
20260503081104 33 319 0.0 0.0 0.00 0.00 0.00 92 1012.8
20260503080551 33 319 0.0 0.0 0.00 0.00 0.00 91 1012.8
20260503072814 33 319 0.0 0.0 0.00 0.00 0.00 90 1012.2
20260503072230 33 319 0.0 0.0 0.00 0.00 0.00 90 1012.2
20260503071712 33 319 0.0 0.0 0.00 0.00 0.00 89 1012.2
20260503071209 33 319 0.0 0.0 0.00 0.00 0.00 89 1012.2
20260503070648 33 319 0.0 0.0 0.00 0.00 0.00 89 1012.2
20260503070147 33 319 0.0 0.0 0.00 0.00 0.00 88 1012.2
20260503054220 34 319 0.0 0.0 0.00 0.00 0.00 83 1012.6
20260503053206 34 319 0.0 0.0 0.00 0.00 0.00 82 1012.6
20260503051645 35 319 0.0 0.0 0.00 0.00 0.00 80 1012.8
20260503051108 35 319 0.0 0.0 0.00 0.00 0.00 80 1012.8
20260503050050 36 319 0.0 0.0 0.00 0.00 0.00 79 1012.8
20260503045528 36 319 0.0 0.0 0.00 0.00 0.00 79 1012.9